Location: Kawakawa
(35.3830°S, 174.0670°E)
Time: 11:07:10
(UTC+13:00)

ISS - Pass Details

Date: 30 January 2019
Orbit: 403 x 411 km, 51.6° (Epoch: 20 February)

Event Time Altitude Azimuth Distance (km) Brightness Sun altitude
Exits shadow 05:25:45 27° 284° (WNW) 844 -2.8 -14.0°
Maximum altitude 05:27:17 51° 220° (SW) 529 -3.3 -13.8°
Drops below altitude 10° 05:30:34 10° 141° (SE) 1,494 0.3 -13.2°
Sets 05:32:43 0° 136° (SE) 2,360 1.8 -12.8°
